Cliffside Park, New Jersey, United States (07010)
Lat: 40.82N, Lon: 73.99W
Wx Zone: NJZ104
Local Info
Past Weather Observations for Today

NOTE: This archive is for the closest National Weather Service station to Cliffside Park. Information may differ from the station used for current weather conditions.

Click here for Long-term Archive

Time Weather Temperature Dewpoint Humidity Pressure Winds Precip Visibility
16:51
Overcast
61°F / 16°C 55°F / 13°C 83% 30.18 in
(1022 mb)
NE 8.1 mph
(NE 13 kph)
- 10SM
15:51
Overcast
61°F / 16°C 55°F / 13°C 83% 30.18 in
(1022 mb)
ENE 6.9 mph
(ENE 11 kph)
- 10SM
14:51
Overcast
63°F / 17°C 55°F / 13°C 77% 30.18 in
(1022 mb)
Variable 6.9 mph
(Variable 11 kph)
- 10SM
13:51
Overcast
61°F / 16°C 55°F / 13°C 83% 30.21 in
(1023 mb)
E 4.6 mph
(E 7 kph)
- 10SM
12:51
Overcast
61°F / 16°C 55°F / 13°C 83% 30.21 in
(1023 mb)
Calm - 10SM
11:51
Overcast
61°F / 16°C 55°F / 13°C 83% 30.24 in
(1024 mb)
ENE 11.5 mph
(ENE 19 kph)
- 8SM
10:51
Overcast
61°F / 16°C 55°F / 13°C 83% 30.24 in
(1024 mb)
ENE 10.4 mph
(ENE 17 kph)
- 9SM
09:51
Overcast
61°F / 16°C 54°F / 12°C 77% 30.24 in
(1024 mb)
Variable 4.6 mph
(Variable 7 kph)
- 10SM
09:19
Overcast
59°F / 15°C 55°F / 13°C 88% 30.24 in
(1024 mb)
NE 10.4 mph
(NE 17 kph)
- 10SM
08:51
Overcast
59°F / 15°C 54°F / 12°C 82% 30.24 in
(1024 mb)
NE 10.4 mph
(NE 17 kph)
- 10SM
07:51
Overcast
57°F / 14°C 54°F / 12°C 88% 30.24 in
(1024 mb)
ENE 8.1 mph
(ENE 13 kph)
- 9SM
06:51
Overcast
57°F / 14°C 54°F / 12°C 88% 30.24 in
(1024 mb)
NE 9.2 mph
(NE 15 kph)
- 7SM
05:51
Overcast
57°F / 14°C 54°F / 12°C 88% 30.24 in
(1024 mb)
ENE 9.2 mph
(ENE 15 kph)
- 10SM
05:35
Overcast
57°F / 14°C 54°F / 12°C 88% 30.24 in
(1024 mb)
Variable 5.8 mph
(Variable 9 kph)
- 10SM
04:51
Overcast
57°F / 14°C 54°F / 12°C 88% 30.24 in
(1024 mb)
Variable 6.9 mph
(Variable 11 kph)
- 9SM
04:34
Overcast
57°F / 14°C 54°F / 12°C 88% 30.24 in
(1024 mb)
ENE 11.5 mph
(ENE 19 kph)
- 10SM
03:51
Overcast
55°F / 13°C 54°F / 12°C 94% 30.24 in
(1024 mb)
NE 8.1 mph
(NE 13 kph)
- 10SM
03:13
Overcast
55°F / 13°C 54°F / 12°C 94% 30.24 in
(1024 mb)
Variable 4.6 mph
(Variable 7 kph)
- 8SM
02:51
Overcast
55°F / 13°C 54°F / 12°C 94% 30.24 in
(1024 mb)
ENE 8.1 mph
(ENE 13 kph)
- 10SM
01:51
Overcast
55°F / 13°C 54°F / 12°C 94% 30.27 in
(1025 mb)
Variable 6.9 mph
(Variable 11 kph)
- 10SM
00:51
Overcast
55°F / 13°C 54°F / 12°C 94% 30.27 in
(1025 mb)
ENE 9.2 mph
(ENE 15 kph)
- 9SM
00:39
Overcast
55°F / 13°C 54°F / 12°C 94% 30.27 in
(1025 mb)
Variable 5.8 mph
(Variable 9 kph)
- 10SM
Time Weather Temperature Dewpoint Humidity Pressure Winds Precip Visibility


Weather for websites

WeatherForYou.com, LLC is not responsible for any damages or problems caused by this service. Current weather conditions are obtained from the closest station including government and personal stations which may have varying degrees of accuracy. Weather forecasts are derived from the NOAA NDFD. Like all things, this site belongs to Jesus Christ... He just trusts us to maintain it. If you have any questions or comments email webmaster@weatherforyou.com

Copyright © 2016, WeatherForYou.com LLC. All rights reserved.